Queen Of Burnaby — VCVV — position and weather

sailwx.info

Track history (hours):
 
Tides and Currents Weather Stations Pressure Air Temp Water Temp Dewpoint Dewpoint Depression Visibility Wind Speed Wind Dir Waves Ship Positions

Queen Of Burnaby

Last reported at 2014-Oct-31 14:30 UTC. Time now 2014-Oct-31 14:54 UTC.
Position N 49°49' W 124°36'.

Length 130 m; draft 4 m.

MMSI: 316001246.

Date/timePositionNaut miles runAvg speedWind from/ knotsBaromVisibWave heightAir tempDewpointWater temp
2014-Oct-31 14:30N 49°49' W 124°36'2 0.2
2014-Oct-31 03:21N 49°50' W 124°33'1214.9
2014-Oct-31 02:32N 49°46' W 124°51'12 3.9
2014-Oct-30 23:25N 49°50' W 124°33'1314.0
2014-Oct-30 22:30N 49°46' W 124°52'1 0.6
2014-Oct-30 20:03N 49°44' W 124°51'13 7.9
2014-Oct-30 18:21N 49°50' W 124°32'1113.3
2014-Oct-30 17:33N 49°47' W 124°47'8 2.5
2014-Oct-30 14:31N 49°49' W 124°36'2 0.1
2014-Oct-30 03:07N 49°50' W 124°34'812.6
2014-Oct-30 02:27N 49°47' W 124°46'7 0.8
2014-Oct-29 18:08N 49°50' W 124°36'813.4
2014-Oct-29 17:32N 49°47' W 124°48'8 2.5
2014-Oct-29 14:32N 49°49' W 124°37'7 0.7
2014-Oct-29 04:30N 49°46' W 124°46'9 8.7
2014-Oct-29 03:26N 49°50' W 124°33'1314.2
2014-Oct-29 02:32N 49°46' W 124°51'10 3.3
2014-Oct-28 23:23N 49°49' W 124°36'2 0.1
2014-Oct-28 03:28N 49°50' W 124°33'12 5.6
2014-Oct-28 01:20N 49°44' W 124°50'10 5.6
2014-Oct-27 23:28N 49°50' W 124°36'1111.9
2014-Oct-27 22:33N 49°45' W 124°51'10 2.3
2014-Oct-27 18:07N 49°49' W 124°37'712.7
2014-Oct-27 17:32N 49°46' W 124°47'7 2.5
2014-Oct-27 14:31N 49°49' W 124°37'2 0.2
2014-Oct-27 03:20N 49°50' W 124°33'4 0.9
2014-Oct-26 23:12N 49°49' W 124°39'913.2
2014-Oct-26 22:30N 49°45' W 124°52'13 3.0
2014-Oct-26 18:15N 49°50' W 124°33'1014.4
2014-Oct-26 17:33N 49°46' W 124°48'8 3.9
2014-Oct-26 15:23N 49°49' W 124°36'1 0.8
2014-Oct-26 14:31N 49°49' W 124°37'1310.5
2014-Oct-26 13:17N 49°44' W 124°55'0 0.0
2014-Oct-26 05:11N 49°44' W 124°55'5 8.5
2014-Oct-26 04:33N 49°46' W 124°48'11 9.2
2014-Oct-26 03:22N 49°50' W 124°32'911.3
2014-Oct-26 02:33N 49°47' W 124°45'7 6.4
2014-Oct-26 01:28N 49°44' W 124°55'0 0.0
2014-Oct-25 21:28N 49°44' W 124°55'0 0.0
2014-Oct-25 20:19N 49°44' W 124°55'810.5
2014-Oct-25 19:33N 49°47' W 124°44'8 6.2
2014-Oct-25 18:17N 49°50' W 124°32'1014.2
2014-Oct-25 17:33N 49°46' W 124°47'6 5.6
2014-Oct-25 16:33N 49°44' W 124°55'1111.5
2014-Oct-25 15:33N 49°48' W 124°39'2 2.1
2014-Oct-25 14:33N 49°49' W 124°36'1313.5
2014-Oct-25 13:33N 49°44' W 124°55'0 0.1
2014-Oct-25 12:28N 49°44' W 124°55'0 0.0
2014-Oct-25 11:28N 49°44' W 124°55'0 0.0
2014-Oct-25 10:28N 49°44' W 124°55'5 0.9
2014-Oct-25 04:33N 49°46' W 124°48'11 9.1
2014-Oct-25 03:23N 49°50' W 124°33'1214.9
2014-Oct-25 02:33N 49°45' W 124°50'3 3.4
2014-Oct-25 01:33N 49°44' W 124°55'1212.5
2014-Oct-25 00:33N 49°49' W 124°37'3 2.8
2014-Oct-24 23:27N 49°50' W 124°33'1213.6
2014-Oct-24 22:33N 49°46' W 124°51'3 1.4
2014-Oct-24 20:13N 49°44' W 124°55'812.0
2014-Oct-24 19:33N 49°47' W 124°43'8 8.1
2014-Oct-24 18:33N 49°50' W 124°32'1010.4
2014-Oct-24 17:34N 49°47' W 124°47'6 5.9
2014-Oct-24 16:33N 49°44' W 124°55'1312.9
2014-Oct-24 15:33N 49°49' W 124°37'1 1.0
2014-Oct-24 14:33N 49°50' W 124°36'1413.3
2014-Oct-24 13:31N 49°44' W 124°55'0 0.0
2014-Oct-24 11:33N 49°44' W 124°55'0 0.0
2014-Oct-24 10:21N 49°44' W 124°55'0 0.0
2014-Oct-24 09:33N 49°44' W 124°55'0 0.0
2014-Oct-24 07:21N 49°44' W 124°55'0 0.0
2014-Oct-24 06:27N 49°44' W 124°55'0 0.0
2014-Oct-24 05:27N 49°44' W 124°55'6 6.3
2014-Oct-24 04:33N 49°47' W 124°48'10 9.2
2014-Oct-24 03:26N 49°50' W 124°32'1314.5
2014-Oct-24 02:34N 49°46' W 124°51'3 3.2
2014-Oct-24 01:32N 49°45' W 124°55'1212.5
2014-Oct-24 00:33N 49°49' W 124°37'3 3.1
2014-Oct-23 23:28N 49°50' W 124°33'1414.7
2014-Oct-23 22:32N 49°45' W 124°53'2 1.0
2014-Oct-23 20:27N 49°44' W 124°55'13 5.4
2014-Oct-23 18:04N 49°49' W 124°37'713.8
2014-Oct-23 17:33N 49°47' W 124°47'7 2.4
2014-Oct-23 14:32N 49°49' W 124°37'13 2.6
2014-Oct-23 09:29N 49°44' W 124°55'0 0.0
2014-Oct-23 08:29N 49°44' W 124°55'12 2.9
2014-Oct-23 04:25N 49°48' W 124°38'4 4.4
2014-Oct-23 03:28N 49°50' W 124°32'1010.6
2014-Oct-23 02:33N 49°47' W 124°47'6 5.1
2014-Oct-23 01:19N 49°44' W 124°55'0 0.0
2014-Oct-23 00:31N 49°44' W 124°55'0 0.0
2014-Oct-22 23:25N 49°44' W 124°55'0 0.0
2014-Oct-22 22:31N 49°44' W 124°55'0 0.0
2014-Oct-22 21:25N 49°44' W 124°55'0 0.0
2014-Oct-22 20:31N 49°44' W 124°55'10 8.9
2014-Oct-22 19:26N 49°48' W 124°41'6 4.9
2014-Oct-22 18:13N 49°50' W 124°33'914.0
2014-Oct-22 17:33N 49°47' W 124°47'5 4.4
2014-Oct-22 16:22N 49°45' W 124°54'1113.6
2014-Oct-22 15:33N 49°49' W 124°38'2 1.9
2014-Oct-22 14:33N 49°50' W 124°36'14 4.6
2014-Oct-22 11:30N 49°44' W 124°55'0 0.0
2014-Oct-22 10:30N 49°44' W 124°55'0 0.0
2014-Oct-22 08:12N 49°44' W 124°55'0 0.0
2014-Oct-22 07:12N 49°44' W 124°55'0 0.0
2014-Oct-22 06:18N 49°44' W 124°55'0 0.0
2014-Oct-22 05:32N 49°44' W 124°55'1010.3
2014-Oct-22 04:33N 49°44' W 124°40'8 7.1
2014-Oct-22 03:26N 49°50' W 124°33'1314.5
2014-Oct-22 02:33N 49°45' W 124°51'3 2.8
2014-Oct-22 01:31N 49°44' W 124°55'1212.8
2014-Oct-22 00:33N 49°49' W 124°38'3 2.6
2014-Oct-21 23:33N 49°50' W 124°34'1211.9
2014-Oct-21 22:33N 49°45' W 124°51'3 2.7
2014-Oct-21 21:27N 49°44' W 124°55'1112.1
2014-Oct-21 20:33N 49°48' W 124°40'5 5.1
2014-Oct-21 19:33N 49°50' W 124°32'1312.6
2014-Oct-21 18:32N 49°46' W 124°51'1 0.9
2014-Oct-21 17:31N 49°46' W 124°49'1211.2
2014-Oct-21 16:26N 49°50' W 124°32'0 0.0
2014-Oct-21 15:08N 49°50' W 124°32'711.4
2014-Oct-21 14:33N 49°48' W 124°42'  
Track history (hours):
 
Tides and Currents Weather Stations Pressure Air Temp Water Temp Dewpoint Dewpoint Depression Visibility Wind Speed Wind Dir Waves Ship Positions

Queen Of Burnaby

Last reported at 2014-Oct-31 14:30 UTC. Time now 2014-Oct-31 14:54 UTC.
Position N 49°49' W 124°36'.

Length 130 m; draft 4 m.

MMSI: 316001246.

Date/timePositionNaut miles runAvg speedWind from/ knotsBaromVisibWave heightAir tempDewpointWater temp
2014-Oct-31 14:30N 49°49' W 124°36'2 0.2
2014-Oct-31 03:21N 49°50' W 124°33'1214.9
2014-Oct-31 02:32N 49°46' W 124°51'12 3.9
2014-Oct-30 23:25N 49°50' W 124°33'1314.0
2014-Oct-30 22:30N 49°46' W 124°52'1 0.6
2014-Oct-30 20:03N 49°44' W 124°51'13 7.9
2014-Oct-30 18:21N 49°50' W 124°32'1113.3
2014-Oct-30 17:33N 49°47' W 124°47'8 2.5
2014-Oct-30 14:31N 49°49' W 124°36'2 0.1
2014-Oct-30 03:07N 49°50' W 124°34'812.6
2014-Oct-30 02:27N 49°47' W 124°46'7 0.8
2014-Oct-29 18:08N 49°50' W 124°36'813.4
2014-Oct-29 17:32N 49°47' W 124°48'8 2.5
2014-Oct-29 14:32N 49°49' W 124°37'7 0.7
2014-Oct-29 04:30N 49°46' W 124°46'9 8.7
2014-Oct-29 03:26N 49°50' W 124°33'1314.2
2014-Oct-29 02:32N 49°46' W 124°51'10 3.3
2014-Oct-28 23:23N 49°49' W 124°36'2 0.1
2014-Oct-28 03:28N 49°50' W 124°33'12 5.6
2014-Oct-28 01:20N 49°44' W 124°50'10 5.6
2014-Oct-27 23:28N 49°50' W 124°36'1111.9
2014-Oct-27 22:33N 49°45' W 124°51'10 2.3
2014-Oct-27 18:07N 49°49' W 124°37'712.7
2014-Oct-27 17:32N 49°46' W 124°47'7 2.5
2014-Oct-27 14:31N 49°49' W 124°37'2 0.2
2014-Oct-27 03:20N 49°50' W 124°33'4 0.9
2014-Oct-26 23:12N 49°49' W 124°39'913.2
2014-Oct-26 22:30N 49°45' W 124°52'13 3.0
2014-Oct-26 18:15N 49°50' W 124°33'1014.4
2014-Oct-26 17:33N 49°46' W 124°48'8 3.9
2014-Oct-26 15:23N 49°49' W 124°36'1 0.8
2014-Oct-26 14:31N 49°49' W 124°37'1310.5
2014-Oct-26 13:17N 49°44' W 124°55'0 0.0
2014-Oct-26 05:11N 49°44' W 124°55'5 8.5
2014-Oct-26 04:33N 49°46' W 124°48'11 9.2
2014-Oct-26 03:22N 49°50' W 124°32'911.3
2014-Oct-26 02:33N 49°47' W 124°45'7 6.4
2014-Oct-26 01:28N 49°44' W 124°55'0 0.0
2014-Oct-25 21:28N 49°44' W 124°55'0 0.0
2014-Oct-25 20:19N 49°44' W 124°55'810.5
2014-Oct-25 19:33N 49°47' W 124°44'8 6.2
2014-Oct-25 18:17N 49°50' W 124°32'1014.2
2014-Oct-25 17:33N 49°46' W 124°47'6 5.6
2014-Oct-25 16:33N 49°44' W 124°55'1111.5
2014-Oct-25 15:33N 49°48' W 124°39'2 2.1
2014-Oct-25 14:33N 49°49' W 124°36'1313.5
2014-Oct-25 13:33N 49°44' W 124°55'0 0.1
2014-Oct-25 12:28N 49°44' W 124°55'0 0.0
2014-Oct-25 11:28N 49°44' W 124°55'0 0.0
2014-Oct-25 10:28N 49°44' W 124°55'5 0.9
2014-Oct-25 04:33N 49°46' W 124°48'11 9.1
2014-Oct-25 03:23N 49°50' W 124°33'1214.9
2014-Oct-25 02:33N 49°45' W 124°50'3 3.4
2014-Oct-25 01:33N 49°44' W 124°55'1212.5
2014-Oct-25 00:33N 49°49' W 124°37'3 2.8
2014-Oct-24 23:27N 49°50' W 124°33'1213.6
2014-Oct-24 22:33N 49°46' W 124°51'3 1.4
2014-Oct-24 20:13N 49°44' W 124°55'812.0
2014-Oct-24 19:33N 49°47' W 124°43'8 8.1
2014-Oct-24 18:33N 49°50' W 124°32'1010.4
2014-Oct-24 17:34N 49°47' W 124°47'6 5.9
2014-Oct-24 16:33N 49°44' W 124°55'1312.9
2014-Oct-24 15:33N 49°49' W 124°37'1 1.0
2014-Oct-24 14:33N 49°50' W 124°36'1413.3
2014-Oct-24 13:31N 49°44' W 124°55'0 0.0
2014-Oct-24 11:33N 49°44' W 124°55'0 0.0
2014-Oct-24 10:21N 49°44' W 124°55'0 0.0
2014-Oct-24 09:33N 49°44' W 124°55'0 0.0
2014-Oct-24 07:21N 49°44' W 124°55'0 0.0
2014-Oct-24 06:27N 49°44' W 124°55'0 0.0
2014-Oct-24 05:27N 49°44' W 124°55'6 6.3
2014-Oct-24 04:33N 49°47' W 124°48'10 9.2
2014-Oct-24 03:26N 49°50' W 124°32'1314.5
2014-Oct-24 02:34N 49°46' W 124°51'3 3.2
2014-Oct-24 01:32N 49°45' W 124°55'1212.5
2014-Oct-24 00:33N 49°49' W 124°37'3 3.1
2014-Oct-23 23:28N 49°50' W 124°33'1414.7
2014-Oct-23 22:32N 49°45' W 124°53'2 1.0
2014-Oct-23 20:27N 49°44' W 124°55'13 5.4
2014-Oct-23 18:04N 49°49' W 124°37'713.8
2014-Oct-23 17:33N 49°47' W 124°47'7 2.4
2014-Oct-23 14:32N 49°49' W 124°37'13 2.6
2014-Oct-23 09:29N 49°44' W 124°55'0 0.0
2014-Oct-23 08:29N 49°44' W 124°55'12 2.9
2014-Oct-23 04:25N 49°48' W 124°38'4 4.4
2014-Oct-23 03:28N 49°50' W 124°32'1010.6
2014-Oct-23 02:33N 49°47' W 124°47'6 5.1
2014-Oct-23 01:19N 49°44' W 124°55'0 0.0
2014-Oct-23 00:31N 49°44' W 124°55'0 0.0
2014-Oct-22 23:25N 49°44' W 124°55'0 0.0
2014-Oct-22 22:31N 49°44' W 124°55'0 0.0
2014-Oct-22 21:25N 49°44' W 124°55'0 0.0
2014-Oct-22 20:31N 49°44' W 124°55'10 8.9
2014-Oct-22 19:26N 49°48' W 124°41'6 4.9
2014-Oct-22 18:13N 49°50' W 124°33'914.0
2014-Oct-22 17:33N 49°47' W 124°47'5 4.4
2014-Oct-22 16:22N 49°45' W 124°54'1113.6
2014-Oct-22 15:33N 49°49' W 124°38'2 1.9
2014-Oct-22 14:33N 49°50' W 124°36'14 4.6
2014-Oct-22 11:30N 49°44' W 124°55'0 0.0
2014-Oct-22 10:30N 49°44' W 124°55'0 0.0
2014-Oct-22 08:12N 49°44' W 124°55'0 0.0
2014-Oct-22 07:12N 49°44' W 124°55'0 0.0
2014-Oct-22 06:18N 49°44' W 124°55'0 0.0
2014-Oct-22 05:32N 49°44' W 124°55'1010.3
2014-Oct-22 04:33N 49°44' W 124°40'8 7.1
2014-Oct-22 03:26N 49°50' W 124°33'1314.5
2014-Oct-22 02:33N 49°45' W 124°51'3 2.8
2014-Oct-22 01:31N 49°44' W 124°55'1212.8
2014-Oct-22 00:33N 49°49' W 124°38'3 2.6
2014-Oct-21 23:33N 49°50' W 124°34'1211.9
2014-Oct-21 22:33N 49°45' W 124°51'3 2.7
2014-Oct-21 21:27N 49°44' W 124°55'1112.1
2014-Oct-21 20:33N 49°48' W 124°40'5 5.1
2014-Oct-21 19:33N 49°50' W 124°32'1312.6
2014-Oct-21 18:32N 49°46' W 124°51'1 0.9
2014-Oct-21 17:31N 49°46' W 124°49'1211.2
2014-Oct-21 16:26N 49°50' W 124°32'0 0.0
2014-Oct-21 15:08N 49°50' W 124°32'711.4
2014-Oct-21 14:33N 49°48' W 124°42'  

Dump ship's entire track history